Observer details:
046 Klet.  Observers J. Ticha, M. Tichy, Z. Moravec.  0.57-m f/5.2 reflector
    + CCD.
118 Modra.  Observers L. Kornos, P. Koleny, J. Toth.  0.6-m f/5.5 reflector
    + CCD.
344 Bohyunsan Optical Astronomy Observatory.  Observers B.-G. Park, Y.-H. Park.
    Measurer M.-Y. Chun.  1.8-m f/8 reflector + CCD.
345 Sobaeksan Optical Astronomy Observatory.  Observers J.-W. Lee, S.-L. Kim.
    0.61-m reflector + CCD.
350 Kurohone.  Observer T. Kobayashi.  0.25-m f/4.4 reflector + CCD.
402 Dynic Astronomical Observatory.  Observer A. Sugie.  0.60-m f/3.7 reflector
    + CCD.
422 Loomberah.  Observer G. J. Garradd.  0.45-m f/5.4 reflector + CCD.
557 Ondrejov.  Observers P. Pravec, L. Sarounova, P. Kusnirak.  0.65-m f/3.6
    reflector + CCD.
611 Starkenburg.  Observer R. Stoss.  0.45-m f/4.4 reflector + CCD.
651 Grasslands Observatory, Tucson.  Observer J. E. McGaha.  0.62-m f/5.1
    reflector + CCD.
695 Kitt Peak.  Observers M. Hicks, R. Fevig.  2.1-m reflector + CCD.  Stellar
    appearance in 10-min exposures.
699 Lowell Observatory-LONEOS.  Observer B. A. Skiff.  Measurer B. W. Koehn.
    0.59-m LONEOS Schmidt
    + CCD.
704 Lincoln Laboratory ETS, New Mexico.  Observers M. Blythe, F. Shelly,
    M. Bezpalko, M. Elowitz, R. Huber.  Measurers J. Stuart, H. Viggh,
    R. Sayer, J. B. Evans.  1.0-m f/2.15 reflector + CCD.

Orbital elements:
2000 HE46
Epoch 2000 Apr. 26.0 TT = JDT 2451660.5                 Williams
M   0.26816              (2000.0)            P               Q
n   0.00912718     Peri.   82.15109     -0.57813997     -0.77027665
a  22.6766232      Node   313.16556     -0.81468546     +0.56321489
e   0.8964529      Incl.  158.34744     +0.04518593     +0.29910345
P 108              H   14.9           G   0.15
From 98 observations 2000 Apr. 29-May 9.

Ephemeris:
2000 HE46                a,e,i = 22.68, 0.90, 158                q = 2.3481
Date    TT    R. A. (2000) Decl.     Delta      r     Elong.  Phase     V
2000 05 06    14 34.42   +22 12.8    1.515    2.385   141.0    15.5    18.5
2000 05 11    14 09.90   +23 17.4    1.563    2.395   136.0    17.0    18.7
2000 05 16    13 47.08   +23 55.6    1.629    2.406   129.9    18.8    18.8
2000 05 21    13 26.51   +24 10.9    1.711    2.418   123.2    20.5    19.0
2000 05 26    13 08.44   +24 08.2    1.805    2.431   116.3    21.9    19.2
2000 05 31    12 52.89   +23 52.1    1.910    2.445   109.6    23.0    19.3
2000 06 05    12 39.71   +23 26.6    2.023    2.460   103.1    23.7    19.5
2000 06 10    12 28.69   +22 55.0    2.141    2.476    96.8    24.0    19.6
2000 06 15    12 19.55   +22 19.7    2.262    2.493    90.8    24.0    19.8
2000 06 20    12 12.04   +21 42.4    2.385    2.511    85.1    23.8    19.9
2000 06 25    12 05.92   +21 04.1    2.509    2.530    79.5    23.3    20.0
2000 06 30    12 01.00   +20 25.6    2.632    2.550    74.2    22.6    20.1
2000 07 05    11 57.09   +19 47.5    2.753    2.571    69.0    21.7    20.2
2000 07 10    11 54.04   +19 10.1    2.871    2.592    64.0    20.6    20.3
2000 07 15    11 51.72   +18 33.5    2.986    2.615    59.1    19.5    20.3

Gareth V. Williams           (C) Copyright 2000 MPC           M.P.E.C. 2000-J34

Read MPEC 2000-J33 Read MPEC 2000-J35


Our Web policy. Index to the CBAT/MPC/ICQ pages.

